Weather History for KSAV - February, 2014

Change the Weather History Date:

Wednesday, February 5, 2014

  Actual Average Record
Temperature  
Mean Temperature 64 °F 51 °F  
Max Temperature 79 °F 62 °F 82 °F (1957)
Min Temperature 49 °F 40 °F 15 °F (1917)
Degree Days  
Heating Degree Days 1 14  
Month to date heating degree days 27 70  
Since 1 July heating degree days 1126 1244  
Cooling Degree Days 0 0  
Month to date cooling degree days 6 0  
Year to date cooling degree days 9 3  
Growing Degree Days 16 (Base 50)    
Moisture  
Dew Point 54 °F    
Average Humidity 64    
Maximum Humidity 100    
Minimum Humidity 27    
Precipitation  
Precipitation 0.17 in 0.11 in 2.36 in (1960)
Month to date precipitation 0.32 0.54  
Year to date precipitation 2.73 4.23  
Sea Level Pressure  
Sea Level Pressure 29.99 in    
Wind  
Wind Speed 10 mph (SW)    
Max Wind Speed 21 mph    
Max Gust Speed 26 mph    
Visibility 5 miles    
Events Fog , Rain    
T = Trace of Precipitation, MM = Missing Value Source: NWS Daily Summary

Daily Weather History Graph

Daily Weather History Graph

Search for Another Location

Airport or City:

Trip Planner

Search our weather history database for the weather conditions in past years. The results will help you decide how hot, cold, wet, or windy it might be!

Date:

Astronomy

Feb. 05, 2014 Rise Set
Actual Time 7:15 AM EST 6:02 PM EST
Civil Twilight 6:50 AM EST 6:27 PM EST
Nautical Twilight 6:21 AM EST 6:56 PM EST
Astronomical Twilight 5:52 AM EST 7:25 PM EST
Moon 10:54 AM EST No Moon Set
Length of Visible Light 11h 37m
Length of Day
10h 46m
Waxing Crescent, 39% of the Moon is Illuminated
Feb 5
Waxing Crescent
Feb 6
First Quarter
Feb 14
Full
Feb 22
Last Quarter
Mar 1
New

Hourly Weather History & Observations

Time (EST) Temp. Dew Point Humidity Pressure Visibility Wind Dir Wind Speed Gust Speed Precip Events Conditions
12:00 AM 51.8 °F 51.8 °F 100% 30.06 in 1.2 mi ESE 5.8 mph - N/A   Overcast
12:15 AM 51.8 °F 51.8 °F 100% 30.07 in 1.5 mi East 4.6 mph - N/A   Overcast
12:28 AM 51.8 °F 50.0 °F 94% 30.06 in 1.2 mi East 5.8 mph - N/A   Overcast
12:51 AM 51.8 °F 51.8 °F 100% 30.05 in 2.0 mi Calm Calm - N/A   Overcast
12:52 AM 52.0 °F 51.1 °F 97% 30.05 in 2.0 mi Calm Calm - N/A   Overcast
1:02 AM 51.8 °F 51.8 °F 100% 30.05 in 4.0 mi Calm Calm - N/A   Overcast
1:53 AM 53.1 °F 50.0 °F 89% 30.04 in 3.0 mi ESE 4.6 mph - N/A   Overcast
2:04 AM 53.6 °F 51.8 °F 94% 30.04 in 2.0 mi Calm Calm - N/A   Overcast
2:13 AM 53.6 °F 51.8 °F 94% 30.04 in 1.5 mi Calm Calm - N/A   Overcast
2:46 AM 53.6 °F 51.8 °F 94% 30.03 in 1.0 mi Calm Calm - N/A   Mist
2:53 AM 53.1 °F 51.1 °F 93% 30.03 in 0.5 mi Calm Calm - N/A Fog Fog
3:53 AM 53.1 °F 51.1 °F 93% 30.00 in 0.8 mi SE 4.6 mph - N/A   Mist
4:39 AM 53.6 °F 51.8 °F 94% 30.00 in 0.2 mi Calm Calm - N/A Fog Fog
4:53 AM 53.1 °F 52.0 °F 96% 30.00 in 0.2 mi SE 3.5 mph - N/A Fog Fog
5:18 AM 53.6 °F 51.8 °F 94% 29.99 in 0.5 mi SSE 4.6 mph - N/A Fog Fog
5:53 AM 54.0 °F 53.1 °F 97% 29.99 in 1.2 mi South 4.6 mph - N/A   Overcast
6:11 AM 55.4 °F 53.6 °F 94% 29.98 in 1.5 mi South 5.8 mph - N/A   Overcast
6:34 AM 55.4 °F 53.6 °F 94% 29.98 in 1.0 mi South 10.4 mph 16.1 mph N/A   Mist
6:46 AM 57.2 °F 55.4 °F 94% 29.98 in 2.0 mi South 10.4 mph - N/A   Overcast
6:53 AM 57.0 °F 55.9 °F 96% 29.98 in 4.0 mi South 6.9 mph - N/A   Overcast
7:24 AM 57.2 °F 55.4 °F 94% 29.99 in 1.0 mi SSW 6.9 mph - N/A   Overcast
7:45 AM 57.2 °F 57.2 °F 100% 30.00 in 5.0 mi SSW 10.4 mph - N/A   Overcast
7:53 AM 59.0 °F 57.0 °F 93% 29.99 in 5.0 mi SSW 10.4 mph - N/A   Overcast
8:03 AM 59.0 °F 57.2 °F 94% 29.98 in 5.0 mi South 11.5 mph - N/A   Overcast
8:26 AM 60.8 °F 59.0 °F 94% 29.98 in 6.0 mi SSW 12.7 mph - N/A   Overcast
8:42 AM 62.6 °F 60.8 °F 94% 29.98 in 1.5 mi SW 12.7 mph 20.7 mph N/A   Overcast
8:53 AM 63.0 °F 61.0 °F 93% 29.99 in 1.5 mi SW 10.4 mph - N/A   Overcast
9:53 AM 66.9 °F 64.0 °F 90% 29.98 in 4.0 mi SSW 11.5 mph - N/A   Overcast
10:31 AM 68.0 °F 64.4 °F 88% 29.97 in 4.0 mi SSW 11.5 mph - 0.02 in Rain Light Rain
10:53 AM 71.1 °F 66.9 °F 87% 29.97 in 10.0 mi SSW 12.7 mph 19.6 mph 0.03 in   Mostly Cloudy
11:44 AM 73.4 °F 66.2 °F 78% 29.95 in 10.0 mi SW 13.8 mph 21.9 mph N/A   Mostly Cloudy
11:53 AM 72.0 °F 66.0 °F 81% 29.97 in 2.0 mi West 19.6 mph 26.5 mph 0.02 in Rain Rain
11:56 AM 69.8 °F 64.4 °F 83% 29.96 in 1.2 mi West 17.3 mph 26.5 mph 0.05 in Rain Rain
12:03 PM 69.8 °F 64.4 °F 83% 29.96 in 2.5 mi West 17.3 mph 23.0 mph 0.09 in Rain Rain
12:10 PM 69.8 °F 64.4 °F 83% 29.95 in 5.0 mi WSW 13.8 mph - 0.10 in Rain Rain
12:16 PM 69.8 °F 64.4 °F 83% 29.94 in 9.0 mi WSW 8.1 mph 19.6 mph 0.10 in   Overcast
12:53 PM 70.0 °F 64.0 °F 81% 29.92 in 10.0 mi WSW 8.1 mph - 0.10 in   Mostly Cloudy
1:53 PM 75.9 °F 64.0 °F 67% 29.91 in 10.0 mi SW 9.2 mph 17.3 mph N/A   Mostly Cloudy
2:53 PM 78.1 °F 60.1 °F 54% 29.90 in 10.0 mi WSW 13.8 mph 25.3 mph N/A   Mostly Cloudy
3:53 PM 79.0 °F 55.0 °F 44% 29.90 in 10.0 mi West 13.8 mph 24.2 mph N/A   Scattered Clouds
4:53 PM 78.1 °F 51.1 °F 39% 29.91 in 10.0 mi West 15.0 mph - N/A   Scattered Clouds
5:53 PM 73.0 °F 37.9 °F 28% 29.94 in 10.0 mi West 11.5 mph - N/A   Mostly Cloudy
6:53 PM 68.0 °F 45.0 °F 43% 29.96 in 10.0 mi WNW 8.1 mph - N/A   Scattered Clouds
7:53 PM 64.9 °F 44.1 °F 47% 29.99 in 10.0 mi WNW 9.2 mph - N/A   Partly Cloudy
8:53 PM 64.0 °F 41.0 °F 43% 30.02 in 10.0 mi WNW 10.4 mph - N/A   Partly Cloudy
9:53 PM 59.0 °F 39.9 °F 49% 30.04 in 10.0 mi NW 9.2 mph - N/A   Clear
10:53 PM 54.0 °F 39.9 °F 59% 30.08 in 10.0 mi NW 19.6 mph 24.2 mph N/A   Partly Cloudy
11:53 PM 50.0 °F 37.0 °F 61% 30.11 in 10.0 mi NW 17.3 mph 25.3 mph N/A   Clear